Location: Paris
(48.6709°N, 2.3750°E)
Time: 15:56:25
(UTC+02:00)

QB50P2 - Pass Details

Date: 04 July 2022
Orbit: 590 x 605 km, 97.9° (Epoch: 18 August)

Event Time Altitude Azimuth Distance (km) Brightness Sun altitude
Rises 02:35:33 0° 22° (NNE) 2,865 ? -17.9°
Reaches altitude 10° 02:37:58 10° 34° (NE) 1,959 ? -17.8°
Maximum altitude 02:41:42 29° 95° (E) 1,111 ? -17.7°
Enters shadow 02:43:39 21° 138° (SE) 1,392 ? -17.6°
